KC4LW Weather Reports


Display with metric or nautical units.
time (UTC)temp
F
wind
direction
speed
MPH
gust
MPH
rain 1hr
in
rain 24hr
in
rain mn
in
humidity
%
barometer
mb
20260503203111 71 88 3.0 10.0 0.00 0.01 0.01 57 1017.1
20260503201601 72 123 2.0 11.0 0.00 0.01 0.01 57 1017.1
20260503200105 72 92 2.0 8.0 0.00 0.01 0.01 57 1017.2
20260503194559 71 76 2.0 8.0 0.00 0.01 0.01 60 1017.4
20260503193102 71 37 2.0 9.0 0.00 0.01 0.01 62 1017.7
20260503191558 72 40 2.0 13.0 0.00 0.01 0.01 60 1017.9
20260503190108 72 87 2.0 9.0 0.00 0.01 0.01 56 1018.1
20260503184604 73 0 2.0 9.0 0.00 0.01 0.01 59 1018.2
20260503183055 72 34 2.0 12.0 0.00 0.01 0.01 57 1018.2
20260503181601 72 319 2.0 9.0 0.00 0.01 0.01 61 1018.3
20260503180055 72 11 3.0 9.0 0.00 0.01 0.01 62 1018.4
20260503174555 71 62 2.0 11.0 0.00 0.08 0.01 62 1018.5
20260503173100 71 0 3.0 9.0 0.00 0.08 0.01 64 1018.6
20260503171553 72 65 2.0 8.0 0.00 0.08 0.01 64 1018.7
20260503100108 56 281 1.0 3.0 0.00 0.46 0.00 97 1016.2
20260503081559 58 303 1.0 4.0 0.00 0.46 0.00 97 1015.6
20260503071553 59 291 2.0 6.0 0.00 0.46 0.00 97 1015.4
20260503060116 59 259 0.0 3.0 0.00 0.46 0.00 96 1014.9
20260503054602 59 0 0.0 1.0 0.00 0.46 0.00 96 1014.9
20260503053055 60 292 0.0 3.0 0.00 0.46 0.00 96 1014.8
20260503051550 60 310 1.0 4.0 0.00 0.46 0.00 96 1014.6
20260503050052 60 300 1.0 4.0 0.00 0.46 0.00 96 1014.6
20260503044550 60 0 0.0 4.0 0.00 0.46 0.00 96 1014.6
20260503043055 60 270 1.0 3.0 0.00 0.46 0.00 96 1014.4
20260503041552 60 304 1.0 4.0 0.00 0.46 0.00 95 1014.1
20260503040055 61 263 1.0 2.0 0.00 0.46 0.00 95 1013.9
20260503034551 61 0 0.0 7.0 0.00 0.46 0.46 95 1013.9
20260503033100 61 0 1.0 6.0 0.00 0.46 0.46 95 1013.7
20260503031552 62 271 1.0 6.0 0.00 0.46 0.46 94 1013.6
20260503030052 62 269 0.0 3.0 0.00 0.46 0.46 94 1013.4
20260503024552 62 0 1.0 3.0 0.00 0.46 0.46 93 1013.1
20260503023100 62 0 0.0 4.0 0.00 0.46 0.46 93 1013.0
20260503021556 62 0 0.0 3.0 0.00 0.46 0.46 93 1013.0
20260503020053 62 0 0.0 2.0 0.00 0.46 0.46 93 1013.0
20260503014600 62 140 0.0 4.0 0.00 0.46 0.46 94 1012.7
20260503013053 62 0 1.0 6.0 0.00 0.46 0.46 94 1012.4
20260503011555 62 311 1.0 6.0 0.00 0.46 0.46 94 1012.2
20260503010054 62 317 1.0 7.0 0.00 0.46 0.46 94 1012.2
20260503004552 62 351 0.0 4.0 0.00 0.46 0.46 95 1012.1
20260503003056 62 352 1.0 5.0 0.00 0.46 0.46 95 1011.5
20260503001611 62 313 1.0 12.0 0.00 0.46 0.46 95 1011.3
20260503000112 63 291 2.0 8.0 0.00 0.46 0.46 95 1010.9
20260502234603 63 346 2.0 10.0 0.00 0.46 0.46 94 1010.9
20260502233056 65 350 2.0 9.0 0.00 0.46 0.46 94 1010.6
20260502231610 65 317 2.0 9.0 0.00 0.46 0.46 93 1010.0
20260502230057 66 304 3.0 10.0 0.00 0.46 0.46 92 1010.0
20260502224556 67 328 3.0 9.0 0.00 0.46 0.46 91 1009.6
20260502223055 69 352 3.0 7.0 0.00 0.46 0.46 88 1008.8
20260502221553 70 346 1.0 7.0 0.00 0.46 0.46 88 1008.6
20260502220057 70 269 2.0 11.0 0.00 0.46 0.46 88 1008.5
20260502214556 69 329 1.0 6.0 0.00 0.46 0.46 89 1008.5
20260502213105 69 286 1.0 10.0 0.00 0.46 0.46 90 1008.0
20260502211555 69 304 3.0 8.0 0.00 0.46 0.46 91 1008.2
20260502210056 68 321 3.0 10.0 0.00 0.46 0.46 91 1008.2
20260502204616 68 271 5.0 11.0 0.00 0.46 0.46 93 1008.2